Location: Caltech
(34.1382°N, 118.1253°W)
Time: 23:44:29
(UTC-07:00)

Cosmos 1937 Rocket - Visible Passes

Search period start: 24 July 2014 00:00
Search period end: 03 August 2014 00:00
Orbit: 748 x 782 km, 74.0° (Epoch: 24 July)

Date Brightness Start Highest point End Pass type
(mag) Time Alt. Az. Time Alt. Az. Time Alt. Az.
24 Jul 5.1 20:31:34 10° NNE 20:35:08 19° ENE 20:38:40 10° ESE visible
24 Jul 4.4 22:12:27 10° NNW 22:17:17 43° WSW 22:19:07 31° SSW visible
25 Jul 3.5 21:34:16 10° NNW 21:39:25 82° WSW 21:42:11 28° S visible
26 Jul 3.7 20:56:25 10° N 21:01:27 54° ENE 21:05:19 17° SE visible
26 Jul 5.9 22:40:25 10° WNW 22:42:52 14° W 22:45:18 10° SW visible
27 Jul 4.5 20:18:53 10° N 20:23:22 29° ENE 20:27:48 10° SE visible
27 Jul 5.3 22:01:00 10° NW 22:05:10 26° W 22:08:43 13° SSW visible
28 Jul 4.3 21:22:28 10° NNW 21:27:23 48° WSW 21:31:58 12° S visible
29 Jul 3.5 20:44:21 10° NNW 20:49:30 89° ENE 20:54:37 10° SSE visible
30 Jul 6.0 21:50:05 10° WNW 21:53:00 15° W 21:55:54 10° SW visible
31 Jul 5.3 21:10:55 10° NW 21:15:17 29° W 21:19:38 10° SSW visible
01 Aug 4.2 20:32:29 10° NNW 20:37:29 55° WSW 20:42:27 10° S visible
